This demonstration page uses our WeatherBlox Daily Observations layout. Learn more.

Left ArrowRight Arrow

44.8408, -93.29828

Hourly Observations for March 31, 2020

Temp ( °F °C ) Dew Point ( °F °C ) Humidity (%) Winds ( mph kmh ) Pressure ( in mb ) Visibility ( mi km ) Precip ( " mm )
12:53 am 00:53 Clear 42 5.6 27 -2.8 55 55 ENE 6 9 30.22 1023 10 16 0.00 0.00
1:53 am 01:53 Clear 41 5 26 -3.3 55 55 E 8 13 30.23 1024 10 16 0.00 0.00
2:53 am 02:53 Clear 39 3.9 26 -3.3 60 60 ENE 6 9 30.22 1023 10 16 0.00 0.00
3:53 am 03:53 Clear 37 2.8 26 -3.3 65 65 ENE 5 7 30.21 1023 10 16 0.00 0.00
4:53 am 04:53 Clear 36 2.2 26 -3.3 67 67 ENE 7 11 30.20 1023 10 16 0.00 0.00
5:53 am 05:53 Clear 35 1.7 25 -3.9 67 67 ENE 8 13 30.19 1022 10 16 0.00 0.00
6:53 am 06:53 Clear 34 1.1 25 -3.9 70 70 ENE 3 6 30.19 1023 10 16 0.00 0.00
7:53 am 07:53 Mostly Sunny 36 2.2 25 -3.9 64 64 ENE 6 9 30.19 1022 10 16 0.00 0.00
8:53 am 08:53 Mostly Sunny 40 4.4 24 -4.4 53 53 E 10 17 30.18 1022 10 16 0.00 0.00
9:53 am 09:53 Mostly Sunny 44 6.7 24 -4.4 45 45 E 8 13 30.16 1022 10 16 0.00 0.00
10:53 am 10:53 Mostly Sunny 46 7.8 23 -5 40 40 E 10 17 30.15 1021 10 16 0.00 0.00
11:53 am 11:53 Mostly Sunny 47 8.3 24 -4.4 41 41 ESE 9 15 30.14 1021 10 16 0.00 0.00
12:53 pm 12:53 Mostly Sunny 50 10 22 -5.6 33 33 NE 3 6 30.12 1020 10 16 0.00 0.00
1:53 pm 13:53 Mostly Sunny 52 11.1 23 -5 32 32 ENE 10 17 30.10 1019 10 16 0.00 0.00
2:53 pm 14:53 Mostly Sunny 52 11.1 23 -5 32 32 E 13 20 30.08 1019 10 16 0.00 0.00
3:53 pm 15:53 Mostly Sunny 53 11.7 25 -3.9 34 34 ENE 7 11 30.06 1018 10 16 0.00 0.00
4:53 pm 16:53 Mostly Sunny 54 12.2 25 -3.9 33 33 E 9 15 30.04 1017 10 16 0.00 0.00
5:53 pm 17:53 Mostly Sunny 53 11.7 27 -2.8 37 37 E 8 13 30.04 1017 10 16 0.00 0.00
6:53 pm 18:53 Mostly Sunny 51 10.6 26 -3.3 38 38 E 9 15 30.03 1017 10 16 0.00 0.00
7:53 pm 19:53 Mostly Clear 49 9.4 27 -2.8 43 43 E 9 15 30.04 1017 10 16 0.00 0.00
8:53 pm 20:53 Partly Cloudy 46 7.8 28 -2.2 50 50 SSE 5 7 30.05 1018 10 16 0.00 0.00
9:53 pm 21:53 Partly Cloudy 45 7.2 29 -1.7 54 54 SE 7 11 30.05 1018 10 16 0.00 0.00
10:53 pm 22:53 Mostly Cloudy 44 6.7 29 -1.7 55 55 SE 6 9 30.05 1018 10 16 0.00 0.00
11:53 pm 23:53 Mostly Cloudy 43 6.1 30 -1.1 60 60 SSE 12 19 30.05 1018 10 16 0.00 0.00

Powered by AerisWeather